{"data":{"norad_id":47772,"intl_designator":"2021-017BC","name":"STARLINK-2195","alt_names":[],"object_type":"PAYLOAD","status":"ACTIVE","operator":null,"country":"US","launch_date":"2021-03-04","launch_site_code":"AFETR","launch_vehicle":null,"mission":null,"orbit_class":"UNKNOWN","rcs_meters":null,"size_class":null,"mass_kg":null,"dimensions":null,"purposes":["comms"],"wikipedia_slug":null,"has_3d_model":false,"image_url":null,"decayed_at":null,"tle_current":{"epoch":"2026-09-19T22:21:48.982752Z","epoch_age_seconds":74862,"freshness":"FRESH","line1":"1 47772U 21017BC  26262.93181693  .00004183  00000+0  14631-3 0  9999","line2":"2 47772  53.1591  33.3362 0000989  81.9072 278.2042 15.31735456307427","mean_motion":15.31735456,"eccentricity":9.89e-5,"inclination_deg":53.1591,"raan_deg":33.3362,"arg_perigee_deg":81.9072,"mean_anomaly_deg":278.2042,"bstar":0.00014631,"rev_number":30742,"period_min":94.011011781397,"perigee_km":469.95696129136,"apogee_km":471.31164825545,"semimajor_km":6848.7713047734,"source":"CELESTRAK","updated_at":"2026-09-20T09:00:38.603222Z"}}}